Location: Bacharowice
(49.9333°N, 19.5833°E)
Time: 09:21:18
(UTC+00:00)

Cosmos 1605 Rocket - Pass Details

Date: 11 May 2021
Orbit: 946 x 1005 km, 82.9° (Epoch: 21 June)

Event Time Altitude Azimuth Distance (km) Brightness Sun altitude
Rises 22:50:56 0° 352° (N) 3,667 8.4 -21.9°
Reaches altitude 10° 22:53:30 10° 356° (N) 2,725 7.5 -21.9°
Maximum altitude 22:59:40 59° 76° (ENE) 1,124 4.3 -21.8°
Enters shadow 23:02:43 30° 144° (SE) 1,673 4.8 -21.7°
